Wind_Speed
29 30 35 35 44 41 37 32 34 32 32 30 30 36 34 18 28 23 21 29 29 21 18 15 10 10 13 14 17 18 19 21
30 32 33 39 31 41 47 46 44 36 34 34 29 39 37 29 24 25 26 31 37 27 23 18 14 11 12 14 14 15 16 17
31 41 35 39 43 45 39 49 49 43 40 30 28 32 38 42 33 25 31 36 35 26 26 18 17 14 13 14 17 18 17 18
39 31 31 37 39 44 52 48 50 47 45 24 27 30 34 41 35 32 31 26 32 30 24 23 19 16 13 14 19 19 17 16
44 38 34 40 38 39 44 50 48 50 53 39 29 35 33 31 24 23 29 35 31 29 28 26 24 21 20 15 19 17 14 10
49 45 33 36 39 39 41 45 58 51 44 46 42 43 37 23 24 28 40 37 27 28 30 22 26 23 23 19 22 18 12 8
46 41 29 36 35 38 41 44 50 53 48 40 51 37 33 34 29 25 27 37 37 37 38 33 32 27 26 26 27 21 16 10
51 40 41 35 33 39 37 41 42 50 46 47 42 54 46 34 37 36 32 37 50 41 39 36 36 29 27 28 27 24 20 13
56 48 35 41 47 35 33 35 36 38 53 48 48 44 49 48 40 35 37 36 47 45 38 36 37 35 32 28 28 26 24 15
52 40 42 54 35 36 37 36 34 35 38 42 52 58 55 54 44 46 46 39 40 48 47 41 38 36 34 33 29 27 28 22
44 48 45 39 35 36 35 33 35 39 38 33 35 56 62 61 57 49 50 38 49 52 53 47 39 35 35 36 29 29 28 25
46 45 51 43 35 43 50 47 43 41 39 38 35 37 41 67 63 60 52 47 49 51 46 37 38 38 37 38 33 33 30 26
50 52 38 35 41 42 47 46 36 40 42 43 47 44 38 31 47 67 57 48 57 41 36 42 35 37 34 34 35 31 31 27
47 43 44 49 45 35 43 37 39 43 43 45 48 46 36 41 36 41 48 63 58 47 51 36 39 39 37 36 35 32 32 31
55 52 32 18 50 46 40 42 34 36 40 33 37 47 47 53 51 42 44 52 64 65 54 46 44 43 40 38 36 35 36 35
49 47 45 52 47 43 46 43 42 42 42 41 35 41 47 52 55 48 49 47 47 48 48 48 46 43 37 37 37 37 36 38
43 45 53 51 54 54 52 47 38 44 39 41 40 41 46 55 55 54 47 47 46 45 45 45 45 42 38 36 34 34 35 40
47 57 57 58 53 49 45 43 40 37 39 41 43 39 41 50 49 46 45 46 48 42 39 40 41 44 41 39 41 43 43 45
58 57 61 71 61 48 41 38 36 35 36 40 36 39 44 38 40 38 33 39 38 36 40 42 44 47 47 45 47 48 51 47
Wind_Direction
228 229 229 236 224 224 224 230 230 231 243 237 235 257 261 225 203 229 265 276 283 286 260 263 247 263 287 289 269 259 254 252
242 229 233 234 236 224 216 223 229 228 224 242 222 238 253 252 216 230 230 258 267 271 257 265 256 268 288 307 301 277 262 262
234 241 232 230 226 222 229 222 224 229 222 229 246 232 252 260 257 235 232 245 261 271 259 249 242 260 278 286 300 291 283 269
222 236 240 235 239 233 214 221 227 224 223 210 230 255 246 243 254 259 257 235 249 264 261 248 246 261 281 282 290 285 283 274
223 216 225 233 231 233 229 221 220 232 224 198 224 246 231 249 250 224 211 220 247 253 258 248 247 258 273 271 279 280 270 276
232 234 224 228 233 238 228 228 227 219 232 213 218 249 259 232 253 215 219 227 243 245 255 247 253 259 262 265 274 277 263 274
234 216 221 229 235 230 232 237 227 232 221 219 208 231 258 234 254 238 208 235 239 249 256 264 262 264 254 254 264 276 262 270
220 224 204 217 232 230 238 242 238 226 224 228 222 216 223 244 240 236 247 255 244 233 249 252 257 255 252 246 257 267 270 266
228 225 218 227 217 223 230 239 237 235 231 216 220 223 228 227 238 253 247 240 248 238 227 239 248 248 242 241 254 264 275 274
225 218 216 231 225 234 228 223 230 244 250 240 219 214 217 218 231 232 230 248 238 244 250 241 242 252 237 234 248 261 272 280
212 215 229 224 223 216 228 231 235 232 231 239 245 227 218 217 220 229 238 240 253 245 255 251 245 245 236 236 243 255 264 275
203 212 217 219 216 221 226 233 224 218 223 227 237 245 245 224 221 223 222 225 238 250 232 249 242 241 235 238 239 250 263 269
203 209 209 213 229 230 231 225 216 222 230 225 225 227 224 233 228 226 223 223 231 227 240 249 232 236 239 239 242 252 259 267
199 216 216 228 219 222 221 226 222 225 230 234 239 235 224 223 222 219 219 226 227 226 242 240 235 238 236 239 242 248 257 265
212 208 210 240 216 234 243 242 235 238 241 237 238 237 236 231 222 221 208 226 228 232 231 231 227 232 236 241 242 245 255 262
217 215 215 220 227 228 229 239 234 237 245 240 233 222 220 223 225 232 219 226 230 220 222 221 224 231 235 239 246 252 256 262
212 220 220 223 226 224 230 234 240 239 254 237 242 226 220 223 227 231 232 227 218 218 215 219 222 230 233 235 238 245 250 255
198 215 221 226 228 229 231 231 229 239 251 237 233 240 236 230 227 230 218 216 214 218 216 218 222 228 235 239 244 249 253 256
209 207 217 225 220 229 228 230 231 246 249 238 239 246 241 219 219 208 213 211 213 211 217 219 220 226 234 240 245 250 254 256
Height
5825 5829 5833 5837 5836 5848 5854 5860 5863 5867 5872 5878 5881 5874 5876 5873 5886 5889 5884 5883 5885 5891 5892 5893 5894 5895 5895 5896 5896 5896 5896 5898
5818 5821 5825 5826 5837 5837 5839 5846 5849 5858 5863 5868 5874 5873 5868 5875 5878 5884 5888 5883 5882 5886 5888 5890 5891 5892 5892 5892 5892 5891 5892 5893
5809 5807 5817 5818 5820 5824 5835 5837 5841 5848 5851 5865 5869 5872 5868 5869 5873 5876 5880 5882 5879 5881 5884 5886 5886 5888 5889 5889 5889 5888 5888 5889
5798 5804 5806 5808 5813 5817 5817 5825 5831 5838 5843 5859 5866 5864 5864 5865 5869 5869 5875 5876 5876 5876 5879 5881 5883 5884 5885 5886 5885 5885 5885 5886
5786 5793 5796 5795 5803 5807 5812 5820 5819 5830 5832 5849 5854 5844 5853 5855 5859 5862 5865 5865 5866 5868 5869 5875 5878 5880 5881 5881 5881 5881 5883 5885
5773 5781 5791 5792 5793 5797 5802 5806 5809 5815 5828 5839 5845 5844 5847 5847 5847 5852 5860 5861 5861 5862 5862 5867 5871 5874 5876 5877 5876 5877 5880 5881
5762 5771 5780 5784 5787 5790 5790 5795 5799 5807 5816 5825 5835 5840 5838 5844 5842 5845 5851 5854 5855 5857 5858 5859 5863 5867 5869 5871 5872 5873 5875 5877
5749 5759 5765 5772 5779 5782 5784 5785 5789 5796 5803 5817 5823 5830 5834 5832 5835 5837 5841 5845 5845 5852 5853 5855 5855 5860 5863 5865 5867 5868 5870 5873
5736 5748 5756 5762 5760 5772 5778 5781 5783 5787 5791 5802 5808 5817 5824 5830 5829 5828 5829 5836 5838 5839 5845 5848 5849 5852 5856 5859 5860 5862 5864 5867
5726 5738 5740 5743 5759 5763 5766 5771 5776 5779 5782 5787 5793 5799 5804 5811 5812 5819 5819 5823 5830 5832 5836 5841 5843 5844 5848 5851 5853 5856 5857 5860
5714 5722 5732 5740 5747 5753 5757 5759 5765 5768 5773 5778 5782 5786 5789 5796 5802 5805 5808 5814 5818 5824 5822 5832 5834 5837 5839 5843 5847 5848 5851 5853
5705 5711 5715 5729 5736 5738 5743 5748 5752 5753 5758 5765 5771 5773 5776 5787 5790 5795 5800 5804 5807 5811 5811 5819 5825 5829 5831 5835 5838 5841 5844 5846
5691 5702 5711 5722 5722 5729 5732 5741 5741 5745 5749 5752 5755 5759 5763 5770 5774 5780 5789 5793 5797 5798 5803 5808 5815 5819 5823 5827 5830 5834 5835 5837
5686 5695 5705 5703 5713 5708 5722 5725 5731 5734 5738 5744 5748 5753 5755 5758 5763 5768 5774 5778 5783 5789 5793 5802 5805 5809 5813 5818 5821 5824 5826 5829
5678 5687 5691 5678 5698 5703 5710 5714 5720 5728 5732 5735 5738 5742 5746 5746 5750 5755 5758 5765 5769 5776 5784 5790 5794 5799 5804 5808 5812 5815 5818 5820
5671 5677 5685 5687 5690 5696 5701 5705 5713 5716 5720 5726 5729 5729 5730 5732 5738 5743 5747 5753 5759 5766 5773 5779 5785 5790 5795 5799 5803 5806 5809 5811
5660 5669 5672 5674 5676 5686 5694 5699 5705 5710 5713 5716 5718 5717 5717 5721 5724 5729 5735 5743 5750 5755 5762 5768 5775 5783 5788 5791 5795 5798 5800 5802
5648 5650 5660 5665 5671 5677 5683 5690 5697 5701 5704 5705 5708 5711 5711 5710 5713 5719 5725 5733 5741 5748 5754 5761 5768 5774 5778 5782 5785 5788 5790 5791
5633 5640 5630 5647 5662 5672 5678 5682 5689 5693 5692 5695 5699 5700 5698 5689 5700 5711 5718 5726 5732 5738 5745 5751 5757 5762 5768 5772 5775 5778 5779 5779